• In Moldova, Republic
  • List of Countries
  • For 7 days
  • Water Temperature
  • Satellite Maps
  • Weather Map
  • Weather Widgets
  • user-avatar
    Login

    Hourly Weather Townsville

    Today, 23 August, Wednesday

    Time Temperature Precipitation Wind Pressure Humidity
    00:00 +20°C° 0 mm 3 mps 757 mmHg 86%
    01:00 +20°C° 0 mm 3 mps 757 mmHg 88%
    02:00 +20°C° 0 mm 3 mps 757 mmHg 89%
    03:00 +20°C° 0 mm 2 mps 757 mmHg 90%
    04:00 +19°C° 0 mm 2 mps 756 mmHg 91%
    05:00 +20°C° 0 mm 2 mps 757 mmHg 91%
    06:00 +20°C° 0 mm 2 mps 757 mmHg 90%
    07:00 +20°C° 0 mm 2 mps 757 mmHg 90%
    08:00 +23°C° 0 mm 2 mps 757 mmHg 79%
    09:00 +25°C° 0 mm 2 mps 757 mmHg 68%
    10:00 +28°C° 0 mm 3 mps 757 mmHg 55%
    11:00 +29°C° 0 mm 3 mps 757 mmHg 51%
    12:00 +30°C° 0 mm 3 mps 756 mmHg 47%
    13:00 +30°C° 0 mm 3 mps 756 mmHg 43%
    14:00 +30°C° 0 mm 3 mps 756 mmHg 45%
    15:00 +29°C° 0 mm 3 mps 755 mmHg 47%
    16:00 +28°C° 0 mm 3 mps 755 mmHg 51%
    17:00 +26°C° 0 mm 3 mps 755 mmHg 60%
    18:00 +24°C° 0 mm 2 mps 755 mmHg 69%
    19:00 +21°C° 0 mm 2 mps 756 mmHg 77%
    20:00 +21°C° 0 mm 2 mps 756 mmHg 80%
    21:00 +20°C° 0 mm 2 mps 756 mmHg 83%
    22:00 +20°C° 0 mm 2 mps 756 mmHg 86%
    23:00 +20°C° 0 mm 2 mps 756 mmHg 87%

    Tomorrow, 24 August, Thursday

    Time Temperature Precipitation Wind Pressure Humidity
    00:00 +19°C° 0 mm 2 mps 756 mmHg 88%
    01:00 +19°C° 0 mm 2 mps 756 mmHg 89%
    02:00 +19°C° 0 mm 2 mps 756 mmHg 90%
    03:00 +19°C° 0 mm 2 mps 756 mmHg 90%
    04:00 +19°C° 0 mm 2 mps 755 mmHg 91%
    05:00 +19°C° 0 mm 2 mps 756 mmHg 91%
    06:00 +20°C° 0 mm 1 mps 756 mmHg 90%
    07:00 +20°C° 0 mm 1 mps 756 mmHg 90%
    08:00 +23°C° 0 mm 1 mps 756 mmHg 78%
    09:00 +25°C° 0 mm 2 mps 756 mmHg 65%
    10:00 +28°C° 0 mm 2 mps 756 mmHg 53%
    11:00 +29°C° 0 mm 2 mps 756 mmHg 49%
    12:00 +30°C° 0 mm 2 mps 755 mmHg 45%
    13:00 +31°C° 0 mm 2 mps 754 mmHg 41%
    14:00 +30°C° 0 mm 2 mps 754 mmHg 42%
    15:00 +30°C° 0 mm 3 mps 753 mmHg 44%
    16:00 +30°C° 0 mm 3 mps 753 mmHg 45%
    17:00 +27°C° 0 mm 3 mps 753 mmHg 55%
    18:00 +25°C° 0 mm 3 mps 753 mmHg 65%
    19:00 +23°C° 0 mm 2 mps 754 mmHg 75%
    20:00 +21°C° 0 mm 2 mps 754 mmHg 78%
    21:00 +20°C° 0 mm 2 mps 754 mmHg 82%
    22:00 +20°C° 0 mm 2 mps 755 mmHg 85%
    23:00 +21°C° 0 mm 1 mps 755 mmHg 86%

    Day after tomorrow, 25 August, Friday

    Time Temperature Precipitation Wind Pressure Humidity
    00:00 +20°C° 0 mm 1 mps 755 mmHg 88%
    01:00 +18°C° 0 mm 0 mps 755 mmHg 89%
    02:00 +20°C° 0 mm 1 mps 754 mmHg 88%
    03:00 +19°C° 0 mm 1 mps 754 mmHg 87%
    04:00 +18°C° 0 mm 2 mps 754 mmHg 85%
    05:00 +18°C° 0 mm 2 mps 755 mmHg 74%
    06:00 +17°C° 0 mm 3 mps 755 mmHg 62%
    07:00 +17°C° 0 mm 4 mps 755 mmHg 50%
    08:00 +20°C° 0 mm 4 mps 756 mmHg 42%
    09:00 +22°C° 0 mm 4 mps 756 mmHg 33%
    10:00 +26°C° 0 mm 4 mps 756 mmHg 25%
    11:00 +28°C° 0 mm 4 mps 756 mmHg 23%
    12:00 +30°C° 0 mm 3 mps 755 mmHg 22%
    13:00 +32°C° 0 mm 2 mps 754 mmHg 20%
    14:00 +33°C° 0 mm 3 mps 754 mmHg 22%
    15:00 +32°C° 0 mm 4 mps 754 mmHg 23%
    16:00 +32°C° 0 mm 4 mps 753 mmHg 25%
    17:00 +28°C° 0 mm 4 mps 754 mmHg 41%
    18:00 +25°C° 0 mm 4 mps 754 mmHg 56%
    19:00 +21°C° 0 mm 4 mps 755 mmHg 72%
    20:00 +20°C° 0 mm 3 mps 755 mmHg 79%
    21:00 +20°C° 0 mm 3 mps 756 mmHg 85%
    22:00 +19°C° 0 mm 3 mps 756 mmHg 92%
    23:00 +19°C° 0.1 mm 3 mps 756 mmHg 93%

    26 August, Saturday

    Time Temperature Precipitation Wind Pressure Humidity
    00:00 +19°C° 0.1 mm 3 mps 756 mmHg 94%
    01:00 +19°C° 0.1 mm 3 mps 756 mmHg 95%
    02:00 +18°C° 0.1 mm 3 mps 756 mmHg 94%
    03:00 +18°C° 0.1 mm 4 mps 755 mmHg 92%
    04:00 +17°C° 0.1 mm 4 mps 755 mmHg 91%
    05:00 +17°C° 0 mm 4 mps 756 mmHg 86%
    06:00 +17°C° 0 mm 4 mps 756 mmHg 82%
    07:00 +15°C° 0 mm 5 mps 757 mmHg 77%
    08:00 +19°C° 0 mm 5 mps 757 mmHg 66%
    09:00 +22°C° 0 mm 5 mps 758 mmHg 56%
    10:00 +25°C° 0 mm 5 mps 758 mmHg 45%
    11:00 +27°C° 0 mm 5 mps 757 mmHg 39%
    12:00 +28°C° 0 mm 5 mps 756 mmHg 32%
    13:00 +30°C° 0 mm 5 mps 756 mmHg 25%
    14:00 +29°C° 0 mm 5 mps 755 mmHg 26%
    15:00 +29°C° 0 mm 5 mps 755 mmHg 27%
    16:00 +29°C° 0 mm 5 mps 755 mmHg 28%
    17:00 +26°C° 0 mm 5 mps 755 mmHg 44%
    18:00 +23°C° 0 mm 5 mps 756 mmHg 60%
    19:00 +20°C° 0 mm 5 mps 756 mmHg 76%
    20:00 +19°C° 0 mm 5 mps 757 mmHg 79%
    21:00 +19°C° 0 mm 4 mps 757 mmHg 82%
    22:00 +18°C° 0 mm 4 mps 758 mmHg 86%
    23:00 +18°C° 0 mm 4 mps 758 mmHg 87%

    27 August, Sunday

    Time Temperature Precipitation Wind Pressure Humidity
    00:00 +18°C° 0 mm 4 mps 757 mmHg 89%
    01:00 +17°C° 0 mm 4 mps 757 mmHg 91%
    02:00 +17°C° 0 mm 4 mps 757 mmHg 92%
    03:00 +17°C° 0 mm 4 mps 757 mmHg 93%
    04:00 +15°C° 0 mm 4 mps 756 mmHg 94%
    05:00 +15°C° 0 mm 4 mps 757 mmHg 94%
    06:00 +15°C° 0 mm 4 mps 757 mmHg 93%
    07:00 +15°C° 0 mm 4 mps 758 mmHg 92%
    08:00 +19°C° 0 mm 4 mps 758 mmHg 80%
    09:00 +22°C° 0 mm 4 mps 758 mmHg 67%
    10:00 +26°C° 0 mm 4 mps 758 mmHg 55%
    11:00 +27°C° 0 mm 4 mps 757 mmHg 52%
    12:00 +27°C° 0 mm 4 mps 756 mmHg 49%
    13:00 +28°C° 0 mm 5 mps 756 mmHg 46%
    14:00 +28°C° 0 mm 5 mps 755 mmHg 50%
    15:00 +27°C° 0 mm 5 mps 755 mmHg 53%
    16:00 +26°C° 0 mm 5 mps 755 mmHg 57%
    17:00 +25°C° 0 mm 5 mps 755 mmHg 65%
    18:00 +22°C° 0 mm 5 mps 756 mmHg 74%
    19:00 +20°C° 0 mm 4 mps 756 mmHg 82%
    20:00 +20°C° 0.1 mm 5 mps 757 mmHg 85%
    21:00 +20°C° 0.1 mm 5 mps 757 mmHg 89%
    22:00 +19°C° 0.1 mm 5 mps 757 mmHg 92%
    23:00 +19°C° 0.1 mm 5 mps 757 mmHg 93%

    28 August, Monday

    Time Temperature Precipitation Wind Pressure Humidity
    00:00 +17°C° 0.1 mm 5 mps 757 mmHg 93%
    01:00 +17°C° 0.1 mm 5 mps 756 mmHg 94%
    02:00 +17°C° 0.1 mm 5 mps 756 mmHg 94%
    03:00 +16°C° 0.1 mm 5 mps 756 mmHg 94%
    04:00 +16°C° 0.1 mm 5 mps 756 mmHg 94%
    05:00 +16°C° 0 mm 5 mps 756 mmHg 93%
    06:00 +17°C° 0 mm 4 mps 757 mmHg 93%
    07:00 +17°C° 0 mm 4 mps 757 mmHg 93%
    08:00 +20°C° 0 mm 5 mps 757 mmHg 79%
    09:00 +23°C° 0 mm 5 mps 757 mmHg 65%
    10:00 +27°C° 0 mm 5 mps 758 mmHg 51%
    11:00 +28°C° 0 mm 5 mps 757 mmHg 47%
    12:00 +29°C° 0 mm 5 mps 756 mmHg 43%
    13:00 +30°C° 0 mm 6 mps 755 mmHg 39%
    14:00 +29°C° 0 mm 6 mps 755 mmHg 43%
    15:00 +28°C° 0 mm 6 mps 755 mmHg 48%
    16:00 +27°C° 0 mm 6 mps 755 mmHg 53%
    17:00 +26°C° 0 mm 6 mps 755 mmHg 61%
    18:00 +23°C° 0 mm 5 mps 756 mmHg 69%
    19:00 +21°C° 0 mm 5 mps 756 mmHg 78%
    20:00 +21°C° 0 mm 5 mps 757 mmHg 82%
    21:00 +20°C° 0 mm 5 mps 757 mmHg 86%
    22:00 +20°C° 0 mm 5 mps 757 mmHg 91%
    23:00 +19°C° 0 mm 5 mps 757 mmHg 92%
    Show more